This is the latest recevied weather packets stored in our database for station/object DL1VED. If no packets are shown the sender has not sent any weather packets the latest 10 day(s).
| Time | Temp. | Humidity | Pressure | Rain* | Wind** | Luminosity | Snow |
|---|---|---|---|---|---|---|---|
| 1777604354 | 10.56° C | 35% | 1024.8 hPa | 0 mm | - | - | - |
| 1777603454 | 10° C | 36% | 1024.8 hPa | 0 mm | - | - | - |
| 1777602554 | 9.44° C | 38% | 1025 hPa | 0 mm | - | - | - |
| 1777601654 | 10° C | 37% | 1025.2 hPa | 0 mm | - | - | - |
| 1777600754 | 10° C | 37% | 1025.2 hPa | 0 mm | - | - | - |
| 1777599854 | 10.56° C | 35% | 1025.2 hPa | 0 mm | - | - | - |
| 1777598954 | 11.11° C | 33% | 1025.1 hPa | 0 mm | - | - | - |
| 1777598054 | 11.11° C | 33% | 1025.1 hPa | 0 mm | - | - | - |
| 1777597154 | 11.67° C | 32% | 1025.3 hPa | 0 mm | - | - | - |
| 1777596254 | 11.67° C | 31% | 1025.3 hPa | 0 mm | - | - | - |
| 1777595354 | 12.22° C | 31% | 1025.4 hPa | 0 mm | - | - | - |
| 1777594454 | 12.22° C | 31% | 1025.3 hPa | 0 mm | - | - | - |
| 1777593554 | 12.22° C | 30% | 1025.3 hPa | 0 mm | - | - | - |
| 1777592654 | 12.22° C | 31% | 1025.3 hPa | 0 mm | - | - | - |
| 1777591754 | 12.22° C | 31% | 1025.3 hPa | 0 mm | - | - | - |
| 1777590854 | 12.22° C | 30% | 1025.3 hPa | 0 mm | - | - | - |
| 1777589954 | 12.22° C | 31% | 1025.3 hPa | 0 mm | - | - | - |
| 1777589054 | 12.22° C | 30% | 1025.3 hPa | 0 mm | - | - | - |
| 1777588154 | 12.22° C | 30% | 1025.3 hPa | 0 mm | - | - | - |
| 1777587254 | 12.78° C | 30% | 1025.2 hPa | 0 mm | - | - | - |
| 1777586354 | 12.78° C | 30% | 1025.2 hPa | 0 mm | - | - | - |
| 1777585454 | 12.78° C | 30% | 1025.1 hPa | 0 mm | - | - | - |
| 1777584554 | 12.78° C | 30% | 1025.2 hPa | 0 mm | - | - | - |
| 1777583654 | 12.78° C | 29% | 1025.1 hPa | 0 mm | - | - | - |
| 1777582754 | 13.33° C | 30% | 1024.8 hPa | 0 mm | - | - | - |
* Rain latest hour (hover to see other rain measurements)
** Current wind speed in m/s (hover to see current wind gust speed)